Weather in Khrustalnyi

Ukraine / Luhansk Region     48°08′13″N   38°55′09″E
temp.,
°C
wind,
m/s
gust,
m/s
humid.,
%
clouds,
%
prec.,
mm/h
press.,
hPa
HPBL,
m
17 june, thu
thu1700:00+20nne51373100 0.5 1011294
03:00+19ne51580100 0.5 1010331
06:00+19ene61586100 0.1 1011493
09:00+21ene41184100 0.8 1012714
12:00+21ne61284100 0.9 1013669
15:00+23ene71075100 4.9 10131107
18:00+18s5796100 5.4 1014231
21:00+16se3797100 27.9 1016239
18 june, fri
fri1800:00+16ene2698100 4.5 1016249
03:00+16ese239895 4.9 1017124
06:00+17ne3798100 0.8 1018423
09:00+17ene5788100 0.9 1018473
12:00+17ne5990100 0.5 1019576
15:00+19ene61082100 0.9 1019862
18:00+18ne41085100 0.0 1019544
21:00+18ne5138090 0.0 1019475
19 june, sat
sat1900:00+17ne6168115 0.0 1019533
03:00+15ene715834 0.1 1019435
06:00+15ene614860 0.0 1020411
09:00+20e812710 0.0 1020568
12:00+24e912590 0.0 1020894
15:00+25e812600 0.0 10191213
18:00+24ene812665 0.0 1018928
21:00+19ene716725 0.0 1019454
20 june, sun
sun2000:00+18ene7176292 0.0 1019383
03:00+16ene616605 0.0 1019352
06:00+16ene617680 0.0 1019354
09:00+21ene81662100 0.0 1018538
12:00+24ene9145498 0.0 1017731
15:00+25ene9145689 0.0 1016776
18:00+25e713597 0.0 1016626
21:00+21ne6166999 0.0 1015323
21 june, mon
mon2100:00+19e4147134 0.0 1015276
03:00+19ese413600 0.0 1015240
06:00+18e4156484 0.0 1015285
09:00+24e61453100 0.0 1015511
12:00+27e7144893 0.0 1015802
15:00+29e8134683 0.0 10141174
18:00+27e714507 0.0 1014518
21:00+23ene6165381 0.1 1014313